Flag for U.S.A. Weather past 2 weeks in Portland, Maine, U.S.A.

Now
69 °F

Clear.


Feels Like: 69 °F
Forecast: 67 / 77 °F
Wind: No wind

Location: Portland - Portland International Jetport

Current Time: Jul 30, 2015 at 2:15:30 AM

Latest Report: Jul 30, 2015 at 1:51 AM


Visibility: 10 mi

Pressure: 29.86 "Hg

Humidity: 93%

Dew point: 67 °F

Location of PortlandLocation

Historic Weather in Portland — Graph

°F

Portland temperature yesterday

Maximum temperature yesterday: 86 °F (at 10:51 AM)
Minimum temperature yesterday: 65 °F (at 1:51 AM)
Average temperature yesterday: 75 °F

Past Weeks' High & Low Weather Summary

 TemperatureHumidityPressure
High86 °F (Jul 29, 10:51 AM)100% (Jul 15, 2:51 AM)30.13 "Hg (Jul 15, 2:51 AM)
Low54 °F (Jul 17, 3:51 AM)37% (Jul 16, 3:51 PM)29.56 "Hg (Jul 22, 12:51 AM)
Average67 °F81%29.87 "Hg
* Reported Jul 15 12:51 AM — Jul 30 12:51 AM, Portland, Weather by CustomWeather, © 2015

Note: Actual official high and low records may vary slightly from our data, if they occured in-between our weather recording intervals... More about our weather records

Advertising

Portland weather history for previous 24 hours

 ConditionsComfort  
Time TempWeatherWind HumidityBarometerVisibility
12:51 AM
Thu, Jul 30
70 °FClear.No wind87%29.86 "Hg10 mi
11:51 PM
Wed, Jul 29
69 °FClear.No wind87%29.87 "Hg10 mi
10:51 PM70 °FClear.No wind84%29.87 "Hg10 mi
9:51 PM72 °FClear.No wind81%29.87 "Hg10 mi
8:51 PM73 °FScattered clouds.No wind76%29.86 "Hg10 mi
7:51 PM76 °FScattered clouds.No wind69%29.86 "Hg10 mi
6:51 PM77 °FBroken clouds.6 mph66%29.86 "Hg10 mi
5:51 PM80 °FBroken clouds.9 mph62%29.86 "Hg10 mi
4:51 PM81 °FBroken clouds.15 mph60%29.88 "Hg10 mi
3:51 PM84 °FBroken clouds.14 mph59%29.87 "Hg10 mi
2:51 PM84 °FPartly sunny.9 mph53%29.89 "Hg10 mi
1:51 PM82 °FBroken clouds.10 mph53%29.90 "Hg10 mi
12:51 PM84 °FBroken clouds.12 mph51%29.91 "Hg10 mi
11:51 AM85 °FScattered clouds.9 mph57%29.92 "Hg10 mi
10:51 AM86 °FScattered clouds.No wind53%29.93 "Hg10 mi
9:51 AM82 °FPassing clouds.3 mph63%29.93 "Hg10 mi
8:51 AM79 °FPassing clouds.No wind65%29.94 "Hg10 mi
7:51 AM74 °FScattered clouds.No wind82%29.94 "Hg10 mi
6:51 AM69 °FPassing clouds.No wind90%29.94 "Hg10 mi
5:51 AM65 °FPassing clouds.No wind97%29.94 "Hg9 mi
4:51 AM65 °FClear.3 mph97%29.93 "Hg10 mi
3:51 AM65 °FClear.3 mph97%29.93 "Hg10 mi
2:51 AM66 °FClear.No wind93%29.93 "Hg10 mi
Weather by CustomWeather, © 2015

See weather overviewHow to use our weather pages